Year,Month,Day,Hour,Minute,Value (Times are PST for windspeed in km/hr)
2014,08,18,00,00,5.70
2014,08,18,00,01,5.50
2014,08,18,00,02,4.80
2014,08,18,00,03,4.10
2014,08,18,00,04,3.40
2014,08,18,00,05,3.70
2014,08,18,00,06,4.10
2014,08,18,00,07,3.90
2014,08,18,00,08,3.20
2014,08,18,00,09,3.20
2014,08,18,00,10,3.50
2014,08,18,00,11,3.20
2014,08,18,00,12,3.20
2014,08,18,00,13,3.20
2014,08,18,00,14,2.90
2014,08,18,00,15,3.00
2014,08,18,00,16,3.20
2014,08,18,00,17,2.70
2014,08,18,00,18,1.60
2014,08,18,00,19,1.60
2014,08,18,00,20,1.60
2014,08,18,00,21,1.60
2014,08,18,00,22,1.60
2014,08,18,00,23,1.60
2014,08,18,00,24,1.60
2014,08,18,00,25,2.00
2014,08,18,00,26,2.90
2014,08,18,00,27,2.60
2014,08,18,00,28,2.00
2014,08,18,00,29,1.80
2014,08,18,00,30,2.70
2014,08,18,00,31,3.20
2014,08,18,00,32,3.20
2014,08,18,00,33,3.20
2014,08,18,00,34,3.10
2014,08,18,00,35,3.20
2014,08,18,00,36,3.20
2014,08,18,00,37,3.20
2014,08,18,00,38,3.20
2014,08,18,00,39,3.00
2014,08,18,00,40,3.00
2014,08,18,00,41,3.20
2014,08,18,00,42,3.20
2014,08,18,00,43,3.20
2014,08,18,00,44,3.60
2014,08,18,00,45,3.70
2014,08,18,00,46,1.10
2014,08,18,00,47,0.40
2014,08,18,00,48,3.40
2014,08,18,00,49,3.60
2014,08,18,00,50,4.10
2014,08,18,00,51,3.50
2014,08,18,00,52,3.20
2014,08,18,00,53,2.30
2014,08,18,00,54,1.60
2014,08,18,00,55,2.10
2014,08,18,00,56,2.80
2014,08,18,00,57,3.40
2014,08,18,00,58,2.50
2014,08,18,00,59,4.20
2014,08,18,01,00,4.40
2014,08,18,01,01,4.20
2014,08,18,01,02,4.90
2014,08,18,01,03,5.60
2014,08,18,01,04,5.60
2014,08,18,01,05,4.50
2014,08,18,01,06,2.10
2014,08,18,01,07,2.60
2014,08,18,01,08,2.50
2014,08,18,01,09,2.80
2014,08,18,01,10,2.10
2014,08,18,01,11,3.10
2014,08,18,01,12,2.40
2014,08,18,01,13,2.30
2014,08,18,01,14,2.80
2014,08,18,01,15,2.00
2014,08,18,01,16,2.80
2014,08,18,01,17,1.80
2014,08,18,01,18,2.30
2014,08,18,01,19,2.50
2014,08,18,01,20,1.60
2014,08,18,01,21,2.10
2014,08,18,01,22,2.80
2014,08,18,01,23,1.80
2014,08,18,01,24,2.40
2014,08,18,01,25,2.50
2014,08,18,01,26,2.00
2014,08,18,01,27,1.10
2014,08,18,01,28,2.30
2014,08,18,01,29,1.60
2014,08,18,01,30,1.60
2014,08,18,01,31,1.20
2014,08,18,01,32,1.30
2014,08,18,01,33,0.80
2014,08,18,01,34,1.50
2014,08,18,01,35,0.60
2014,08,18,01,36,0.50
2014,08,18,01,37,0.00
2014,08,18,01,38,0.00
2014,08,18,01,39,0.00
2014,08,18,01,40,0.00
2014,08,18,01,41,0.00
2014,08,18,01,42,0.00
2014,08,18,01,43,0.00
2014,08,18,01,44,0.00
2014,08,18,01,45,0.10
2014,08,18,01,46,0.20
2014,08,18,01,47,0.80
2014,08,18,01,48,1.20
2014,08,18,01,49,1.60
2014,08,18,01,50,1.60
2014,08,18,01,51,1.60
2014,08,18,01,52,1.70
2014,08,18,01,53,0.20
2014,08,18,01,54,0.00
2014,08,18,01,55,0.00
2014,08,18,01,56,0.00
2014,08,18,01,57,0.00
2014,08,18,01,58,0.00
2014,08,18,01,59,0.00
2014,08,18,02,00,0.00
2014,08,18,02,01,0.00
2014,08,18,02,02,0.00
2014,08,18,02,03,0.00
2014,08,18,02,04,0.00
2014,08,18,02,05,0.00
2014,08,18,02,06,0.00
2014,08,18,02,07,0.00
2014,08,18,02,08,0.00
2014,08,18,02,09,0.00
2014,08,18,02,10,0.10
2014,08,18,02,11,0.00
2014,08,18,02,12,1.30
2014,08,18,02,13,0.00
2014,08,18,02,14,0.00
2014,08,18,02,15,0.00
2014,08,18,02,16,0.00
2014,08,18,02,17,0.00
2014,08,18,02,18,0.00
2014,08,18,02,19,0.00
2014,08,18,02,20,0.00
2014,08,18,02,21,0.00
2014,08,18,02,22,0.00
2014,08,18,02,23,0.00
2014,08,18,02,24,0.00
2014,08,18,02,25,0.00
2014,08,18,02,26,0.00
2014,08,18,02,27,0.20
2014,08,18,02,28,0.00
2014,08,18,02,29,0.60
2014,08,18,02,30,0.20
2014,08,18,02,31,0.00
2014,08,18,02,32,0.00
2014,08,18,02,33,0.00
2014,08,18,02,34,1.60
2014,08,18,02,35,1.20
2014,08,18,02,36,0.90
2014,08,18,02,37,0.10
2014,08,18,02,38,0.00
2014,08,18,02,39,0.20
2014,08,18,02,40,0.00
2014,08,18,02,41,0.00
2014,08,18,02,42,0.00
2014,08,18,02,43,0.00
2014,08,18,02,44,0.00
2014,08,18,02,45,0.00
2014,08,18,02,46,0.00
2014,08,18,02,47,0.00
2014,08,18,02,48,1.20
2014,08,18,02,49,0.40
2014,08,18,02,50,1.10
2014,08,18,02,51,1.30
2014,08,18,02,52,1.40
2014,08,18,02,53,1.60
2014,08,18,02,54,1.60
2014,08,18,02,55,1.60
2014,08,18,02,56,2.60
2014,08,18,02,57,2.50
2014,08,18,02,58,1.60
2014,08,18,02,59,2.00
2014,08,18,03,00,1.60
2014,08,18,03,01,1.20
2014,08,18,03,02,1.00
2014,08,18,03,03,1.60
2014,08,18,03,04,1.70
2014,08,18,03,05,1.60
2014,08,18,03,06,0.90
2014,08,18,03,07,1.20
2014,08,18,03,08,1.00
2014,08,18,03,09,1.40
2014,08,18,03,10,0.70
2014,08,18,03,11,1.50
2014,08,18,03,12,1.10
2014,08,18,03,13,1.60
2014,08,18,03,14,2.30
2014,08,18,03,15,3.00
2014,08,18,03,16,2.30
2014,08,18,03,17,2.40
2014,08,18,03,18,2.90
2014,08,18,03,19,3.20
2014,08,18,03,20,4.20
2014,08,18,03,21,3.20
2014,08,18,03,22,3.20
2014,08,18,03,23,3.20
2014,08,18,03,24,3.20
2014,08,18,03,25,3.20
2014,08,18,03,26,1.70
2014,08,18,03,27,1.60
2014,08,18,03,28,1.80
2014,08,18,03,29,2.30
2014,08,18,03,30,3.20
2014,08,18,03,31,2.10
2014,08,18,03,32,2.30
2014,08,18,03,33,1.60
2014,08,18,03,34,1.40
2014,08,18,03,35,1.50
2014,08,18,03,36,1.60
2014,08,18,03,37,1.70
2014,08,18,03,38,2.10
2014,08,18,03,39,1.10
2014,08,18,03,40,1.60
2014,08,18,03,41,2.00
2014,08,18,03,42,2.00
2014,08,18,03,43,2.80
2014,08,18,03,44,3.20
2014,08,18,03,45,4.10
2014,08,18,03,46,4.10
2014,08,18,03,47,4.80
2014,08,18,03,48,4.40
2014,08,18,03,49,2.20
2014,08,18,03,50,0.10
2014,08,18,03,51,0.60
2014,08,18,03,52,0.00
2014,08,18,03,53,0.20
2014,08,18,03,54,0.00
2014,08,18,03,55,0.00
2014,08,18,03,56,0.00
2014,08,18,03,57,0.00
2014,08,18,03,58,0.00
2014,08,18,03,59,0.00
2014,08,18,04,00,0.40
2014,08,18,04,01,0.00
2014,08,18,04,02,0.10
2014,08,18,04,03,0.30
2014,08,18,04,04,0.40
2014,08,18,04,05,1.60
2014,08,18,04,06,1.40
2014,08,18,04,07,0.00
2014,08,18,04,08,1.20
2014,08,18,04,09,1.70
2014,08,18,04,10,2.20
2014,08,18,04,11,3.20
2014,08,18,04,12,1.80
2014,08,18,04,13,0.00
2014,08,18,04,14,0.80
2014,08,18,04,15,0.20
2014,08,18,04,16,1.20
2014,08,18,04,17,2.00
2014,08,18,04,18,0.90
2014,08,18,04,19,2.30
2014,08,18,04,20,3.10
2014,08,18,04,21,0.80
2014,08,18,04,22,1.00
2014,08,18,04,23,0.60
2014,08,18,04,24,0.00
2014,08,18,04,25,0.80
2014,08,18,04,26,1.60
2014,08,18,04,27,1.60
2014,08,18,04,34,0.90
2014,08,18,04,35,2.70
2014,08,18,04,36,2.50
2014,08,18,04,37,1.40
2014,08,18,04,38,3.00
2014,08,18,04,39,2.50
2014,08,18,04,40,1.30
2014,08,18,04,41,1.50
2014,08,18,04,42,0.90
2014,08,18,04,43,2.40
2014,08,18,04,44,1.20
2014,08,18,04,45,0.60
2014,08,18,04,46,0.10
2014,08,18,04,47,0.90
2014,08,18,04,48,1.60
2014,08,18,04,49,1.30
2014,08,18,04,50,0.70
2014,08,18,04,51,0.90
2014,08,18,04,52,0.90
2014,08,18,04,53,0.60
2014,08,18,04,54,0.70
2014,08,18,04,55,0.00
2014,08,18,05,03,2.10
2014,08,18,05,04,2.20
2014,08,18,05,05,2.20
2014,08,18,05,06,1.30
2014,08,18,05,07,1.10
2014,08,18,05,08,0.30
2014,08,18,05,09,0.00
2014,08,18,05,10,0.00
2014,08,18,05,11,0.00
2014,08,18,05,12,0.50
2014,08,18,05,13,0.00
2014,08,18,05,14,0.10
2014,08,18,05,15,0.30
2014,08,18,05,16,0.00
2014,08,18,05,17,0.20
2014,08,18,05,18,0.20
2014,08,18,05,19,0.00
2014,08,18,05,20,0.80
2014,08,18,05,21,0.40
2014,08,18,05,22,0.00
2014,08,18,05,23,0.00
2014,08,18,05,24,0.00
2014,08,18,05,25,0.00
2014,08,18,05,26,0.00
2014,08,18,05,27,0.00
2014,08,18,05,28,0.00
2014,08,18,05,29,0.00
2014,08,18,05,30,0.20
2014,08,18,05,31,0.00
2014,08,18,05,32,0.00
2014,08,18,05,33,0.00
2014,08,18,05,34,0.00
2014,08,18,05,35,0.10
2014,08,18,05,36,0.30
2014,08,18,05,37,1.30
2014,08,18,05,38,2.00
2014,08,18,05,39,1.00
2014,08,18,05,40,0.00
2014,08,18,05,41,0.80
2014,08,18,05,42,0.00
2014,08,18,05,43,0.00
2014,08,18,05,44,0.00
2014,08,18,05,45,0.00
2014,08,18,05,46,0.20
2014,08,18,05,47,0.00
2014,08,18,05,48,0.00
2014,08,18,05,49,0.00
2014,08,18,05,50,0.00
2014,08,18,05,51,0.00
2014,08,18,05,52,0.00
2014,08,18,05,53,0.00
2014,08,18,05,54,0.00
2014,08,18,05,55,0.00
2014,08,18,05,56,0.00
2014,08,18,05,57,0.00
2014,08,18,05,58,0.00
2014,08,18,05,59,0.00
2014,08,18,06,00,0.00
2014,08,18,06,01,0.00
2014,08,18,06,02,0.00
2014,08,18,06,03,0.00
2014,08,18,06,04,0.00
2014,08,18,06,05,0.00
2014,08,18,06,06,0.00
2014,08,18,06,07,0.00
2014,08,18,06,08,0.10
2014,08,18,06,09,0.00
2014,08,18,06,10,0.00
2014,08,18,06,11,0.00
2014,08,18,06,12,0.00
2014,08,18,06,13,0.00
2014,08,18,06,14,0.00
2014,08,18,06,15,0.00
2014,08,18,06,16,0.00
2014,08,18,06,17,0.00
2014,08,18,06,18,0.00
2014,08,18,06,19,0.40
2014,08,18,06,20,0.00
2014,08,18,06,21,0.10
2014,08,18,06,22,0.00
2014,08,18,06,23,0.00
2014,08,18,06,24,0.00
2014,08,18,06,25,0.10
2014,08,18,06,26,0.00
2014,08,18,06,27,0.00
2014,08,18,06,28,0.00
2014,08,18,06,29,0.00
2014,08,18,06,30,0.00
2014,08,18,06,31,0.00
2014,08,18,06,32,0.00
2014,08,18,06,33,0.00
2014,08,18,06,34,0.00
2014,08,18,06,35,0.10
2014,08,18,06,36,0.00
2014,08,18,06,37,0.90
2014,08,18,06,38,0.00
2014,08,18,06,39,0.00
2014,08,18,06,40,0.00
2014,08,18,06,41,0.00
2014,08,18,06,42,0.00
2014,08,18,06,43,0.00
2014,08,18,06,44,0.00
2014,08,18,06,45,0.00
2014,08,18,06,46,0.00
2014,08,18,06,47,0.00
2014,08,18,06,48,0.00
2014,08,18,06,49,0.00
2014,08,18,06,50,0.00
2014,08,18,06,51,0.00
2014,08,18,06,52,0.00
2014,08,18,06,53,0.00
2014,08,18,06,54,0.00
2014,08,18,06,55,0.00
2014,08,18,06,56,0.00
2014,08,18,06,57,0.00
2014,08,18,06,58,0.20
2014,08,18,06,59,0.00
2014,08,18,07,00,0.00
2014,08,18,07,01,0.00
2014,08,18,07,02,0.00
2014,08,18,07,03,0.00
2014,08,18,07,04,0.00
2014,08,18,07,05,0.00
2014,08,18,07,06,0.00
2014,08,18,07,07,0.70
2014,08,18,07,08,0.50
2014,08,18,07,09,0.10
2014,08,18,07,10,0.00
2014,08,18,07,11,0.40
2014,08,18,07,12,0.10
2014,08,18,07,13,0.00
2014,08,18,07,14,0.30
2014,08,18,07,15,0.00
2014,08,18,07,16,1.00
2014,08,18,07,17,0.00
2014,08,18,07,18,0.90
2014,08,18,07,19,1.60
2014,08,18,07,20,1.60
2014,08,18,07,21,2.80
2014,08,18,07,22,3.20
2014,08,18,07,23,3.20
2014,08,18,07,24,1.70
2014,08,18,07,25,1.60
2014,08,18,07,26,2.60
2014,08,18,07,27,2.10
2014,08,18,07,28,1.60
2014,08,18,07,29,1.60
2014,08,18,07,30,2.00
2014,08,18,07,31,0.30
2014,08,18,07,32,0.00
2014,08,18,07,33,2.90
2014,08,18,07,34,0.20
2014,08,18,07,35,0.00
2014,08,18,07,36,1.20
2014,08,18,07,37,0.10
2014,08,18,07,38,0.20
2014,08,18,07,39,1.10
2014,08,18,07,40,0.20
2014,08,18,07,41,1.20
2014,08,18,07,42,3.30
2014,08,18,07,43,0.60
2014,08,18,07,44,0.50
2014,08,18,07,45,1.50
2014,08,18,07,46,1.10
2014,08,18,07,47,1.10
2014,08,18,07,48,0.30
2014,08,18,07,49,0.20
2014,08,18,07,50,2.50
2014,08,18,07,51,1.80
2014,08,18,07,52,1.20
2014,08,18,07,53,3.50
2014,08,18,07,54,2.20
2014,08,18,07,55,1.90
2014,08,18,07,56,2.50
2014,08,18,07,57,2.80
2014,08,18,07,58,2.70
2014,08,18,07,59,2.20
2014,08,18,08,00,2.50
2014,08,18,08,01,2.00
2014,08,18,08,02,2.00
2014,08,18,08,03,1.50
2014,08,18,08,04,0.40
2014,08,18,08,05,0.40
2014,08,18,08,06,1.00
2014,08,18,08,07,1.90
2014,08,18,08,08,0.60
2014,08,18,08,09,0.50
2014,08,18,08,10,0.10
2014,08,18,08,11,0.10
2014,08,18,08,12,1.20
2014,08,18,08,13,0.00
2014,08,18,08,14,0.60
2014,08,18,08,15,0.10
2014,08,18,08,16,0.30
2014,08,18,08,17,0.60
2014,08,18,08,18,0.90
2014,08,18,08,19,0.80
2014,08,18,08,20,3.00
2014,08,18,08,21,1.60
2014,08,18,08,22,1.40
2014,08,18,08,23,0.60
2014,08,18,08,24,1.10
2014,08,18,08,25,1.80
2014,08,18,08,26,1.20
2014,08,18,08,27,2.70
2014,08,18,08,34,2.80
2014,08,18,08,35,2.40
2014,08,18,08,36,2.50
2014,08,18,08,37,0.30
2014,08,18,08,38,1.00
2014,08,18,08,39,0.30
2014,08,18,08,40,1.70
2014,08,18,08,41,0.90
2014,08,18,08,42,0.00
2014,08,18,08,43,3.00
2014,08,18,08,44,0.00
2014,08,18,08,45,1.00
2014,08,18,08,46,0.50
2014,08,18,08,47,0.00
2014,08,18,08,48,0.60
2014,08,18,08,49,0.10
2014,08,18,08,50,1.40
2014,08,18,08,51,0.30
2014,08,18,08,52,2.20
2014,08,18,08,53,3.20
2014,08,18,08,54,1.20
2014,08,18,08,57,2.20
2014,08,18,08,58,2.30
2014,08,18,08,59,1.90
2014,08,18,09,00,2.70
2014,08,18,09,01,2.10
2014,08,18,09,02,1.40
2014,08,18,09,03,2.10
2014,08,18,09,04,0.80
2014,08,18,09,05,1.80
2014,08,18,09,06,1.30
2014,08,18,09,07,1.40
2014,08,18,09,08,1.00
2014,08,18,09,09,3.00
2014,08,18,09,10,3.60
2014,08,18,09,27,1.70
2014,08,18,09,28,2.30
2014,08,18,09,29,2.40
2014,08,18,09,30,1.10
2014,08,18,09,31,0.70
2014,08,18,09,32,0.20
2014,08,18,09,33,0.20
2014,08,18,09,34,0.80
2014,08,18,09,51,0.20
2014,08,18,09,52,0.50
2014,08,18,09,53,0.20
2014,08,18,09,54,6.90
2014,08,18,09,55,5.10
2014,08,18,09,56,4.10
2014,08,18,11,04,1.40
2014,08,18,11,11,2.90
2014,08,18,11,14,4.10
2014,08,18,11,15,4.70
2014,08,18,11,16,4.40
2014,08,18,11,17,2.10
2014,08,18,11,18,2.00
2014,08,18,11,19,1.80
2014,08,18,11,20,3.30
2014,08,18,11,21,5.30
2014,08,18,11,22,2.50
2014,08,18,11,23,3.10
2014,08,18,11,24,0.70
2014,08,18,11,25,0.20
2014,08,18,11,26,0.00
2014,08,18,11,27,3.60
2014,08,18,11,28,4.80
2014,08,18,11,37,3.10
2014,08,18,11,38,3.30
2014,08,18,11,39,2.80
2014,08,18,11,40,5.10
2014,08,18,11,49,2.40
2014,08,18,11,50,4.70
2014,08,18,11,51,3.70
2014,08,18,11,52,4.20
2014,08,18,11,53,5.50
2014,08,18,11,54,2.70
2014,08,18,11,55,2.40
2014,08,18,11,57,3.60
2014,08,18,11,58,2.60
2014,08,18,11,59,1.50
2014,08,18,12,00,2.90
2014,08,18,12,01,2.80
2014,08,18,12,02,2.90
2014,08,18,12,03,3.60
2014,08,18,12,04,3.90
2014,08,18,12,05,1.60
2014,08,18,12,06,2.20
2014,08,18,12,07,5.00
2014,08,18,12,08,5.60
2014,08,18,12,09,0.90
2014,08,18,12,10,2.10
2014,08,18,12,11,1.70
2014,08,18,12,15,1.00
2014,08,18,12,16,2.90
2014,08,18,12,17,5.00
2014,08,18,12,18,5.20
2014,08,18,12,19,4.50
2014,08,18,12,20,6.60
2014,08,18,12,21,3.20
2014,08,18,12,22,1.50
2014,08,18,12,23,4.80
2014,08,18,12,24,5.10
2014,08,18,12,25,5.60
2014,08,18,12,26,1.50
2014,08,18,12,27,7.60
2014,08,18,12,28,12.10
2014,08,18,12,29,8.00
2014,08,18,12,30,9.90
2014,08,18,12,31,7.40
2014,08,18,12,32,7.40
2014,08,18,12,33,6.70
2014,08,18,12,34,8.10
2014,08,18,12,35,5.10
2014,08,18,12,36,7.30
2014,08,18,12,37,9.30
2014,08,18,12,38,1.90
2014,08,18,12,39,1.40
2014,08,18,12,40,0.60
2014,08,18,12,41,3.10
2014,08,18,12,42,5.10
2014,08,18,12,43,4.90
2014,08,18,12,44,3.60
2014,08,18,12,45,3.50
2014,08,18,12,46,5.60
2014,08,18,12,47,3.10
2014,08,18,12,48,1.20
2014,08,18,12,49,2.60
2014,08,18,12,50,1.00
2014,08,18,12,51,2.60
2014,08,18,12,52,3.60
2014,08,18,12,53,5.70
2014,08,18,12,54,5.00
2014,08,18,12,55,9.20
2014,08,18,12,57,10.70
2014,08,18,12,58,7.50
2014,08,18,12,59,7.40
2014,08,18,13,00,3.80
2014,08,18,13,01,3.50
2014,08,18,13,02,3.20
2014,08,18,13,03,4.70
2014,08,18,13,04,2.90
2014,08,18,13,05,7.60
2014,08,18,13,06,5.60
2014,08,18,13,07,4.40
2014,08,18,13,08,5.70
2014,08,18,13,09,3.10
2014,08,18,13,10,3.60
2014,08,18,13,11,5.50
2014,08,18,13,12,5.30
2014,08,18,13,13,8.00
2014,08,18,13,14,7.90
2014,08,18,13,15,7.30
2014,08,18,13,16,7.20
2014,08,18,13,17,7.90
2014,08,18,13,18,9.00
2014,08,18,13,19,6.70
2014,08,18,13,20,6.40
2014,08,18,13,21,7.20
2014,08,18,13,22,7.60
2014,08,18,13,23,6.30
2014,08,18,13,24,4.40
2014,08,18,13,25,4.60
2014,08,18,13,26,4.20
2014,08,18,13,27,2.80
2014,08,18,13,28,5.20
2014,08,18,13,29,5.10
2014,08,18,13,30,4.30
2014,08,18,13,31,4.10
2014,08,18,13,32,4.00
2014,08,18,13,33,2.50
2014,08,18,13,34,6.90
2014,08,18,13,35,4.00
2014,08,18,13,36,6.20
2014,08,18,13,37,6.20
2014,08,18,13,38,3.80
2014,08,18,13,39,1.90
2014,08,18,13,40,3.20
2014,08,18,13,41,4.10
2014,08,18,13,42,6.80
2014,08,18,13,43,4.60
2014,08,18,14,03,5.10
2014,08,18,14,04,6.60
2014,08,18,14,05,6.70
2014,08,18,14,06,8.50
2014,08,18,14,07,7.70
2014,08,18,14,08,4.50
2014,08,18,14,09,5.70
2014,08,18,14,10,7.20
2014,08,18,14,11,4.00
2014,08,18,14,12,3.40
2014,08,18,14,13,4.10
2014,08,18,14,14,4.60
2014,08,18,14,15,5.40
2014,08,18,14,16,8.30
2014,08,18,14,17,4.60
2014,08,18,14,18,4.40
2014,08,18,14,19,2.70
2014,08,18,14,20,2.40
2014,08,18,14,21,4.10
2014,08,18,14,22,3.20
2014,08,18,14,23,4.30
2014,08,18,14,24,4.40
2014,08,18,14,25,5.80
2014,08,18,14,26,5.50
2014,08,18,14,27,6.70
2014,08,18,14,28,6.60
2014,08,18,14,29,5.00
2014,08,18,14,30,7.30
2014,08,18,14,31,9.40
2014,08,18,14,32,7.40
2014,08,18,14,33,13.00
2014,08,18,14,34,8.50
2014,08,18,14,35,10.10
2014,08,18,14,36,8.80
2014,08,18,14,37,3.40
2014,08,18,14,38,8.50
2014,08,18,14,39,4.20
2014,08,18,14,40,5.30
2014,08,18,14,41,6.70
2014,08,18,14,42,2.40
2014,08,18,14,43,3.50
2014,08,18,14,44,6.30
2014,08,18,14,45,3.00
2014,08,18,14,46,2.70
2014,08,18,14,47,5.20
2014,08,18,14,48,3.90
2014,08,18,14,49,3.40
2014,08,18,14,50,4.10
2014,08,18,14,51,5.60
2014,08,18,14,52,3.80
2014,08,18,14,53,3.00
2014,08,18,14,54,3.60
2014,08,18,14,55,3.40
2014,08,18,14,56,6.20
2014,08,18,14,57,5.00
2014,08,18,14,58,5.80
2014,08,18,14,59,2.30
2014,08,18,15,00,6.10
2014,08,18,15,01,3.10
2014,08,18,15,02,5.10
2014,08,18,15,03,5.80
2014,08,18,15,04,4.60
2014,08,18,15,05,2.50
2014,08,18,15,06,3.10
2014,08,18,15,07,5.50
2014,08,18,15,08,4.10
2014,08,18,15,09,3.90
2014,08,18,15,10,3.10
2014,08,18,15,11,4.40
2014,08,18,15,12,5.40
2014,08,18,15,13,4.70
2014,08,18,15,14,5.90
2014,08,18,15,15,4.10
2014,08,18,15,16,1.40
2014,08,18,15,17,1.70
2014,08,18,15,18,2.70
2014,08,18,15,19,2.80
2014,08,18,15,20,3.10
2014,08,18,15,21,6.60
2014,08,18,15,22,8.50
2014,08,18,15,23,4.20
2014,08,18,15,24,4.80
2014,08,18,15,25,1.50
2014,08,18,15,26,1.30
2014,08,18,15,27,4.10
2014,08,18,15,28,5.60
2014,08,18,15,29,3.10
2014,08,18,15,30,2.80
2014,08,18,15,31,3.20
2014,08,18,15,32,1.40
2014,08,18,15,33,1.20
2014,08,18,15,34,3.20
2014,08,18,15,35,2.70
2014,08,18,15,36,3.00
2014,08,18,15,37,2.10
2014,08,18,15,38,3.50
2014,08,18,15,39,4.30
2014,08,18,15,40,4.30
2014,08,18,15,41,4.90
2014,08,18,15,42,2.50
2014,08,18,15,43,1.50
2014,08,18,15,44,2.00
2014,08,18,15,45,1.30
2014,08,18,15,46,4.10
2014,08,18,15,47,6.10
2014,08,18,15,48,8.60
2014,08,18,15,49,6.20
2014,08,18,15,50,9.00
2014,08,18,15,51,5.10
2014,08,18,15,52,8.10
2014,08,18,15,53,8.70
2014,08,18,15,54,8.40
2014,08,18,15,55,9.40
2014,08,18,15,56,7.00
2014,08,18,15,57,6.40
2014,08,18,15,58,5.40
2014,08,18,15,59,8.50
2014,08,18,16,00,10.60
2014,08,18,16,01,7.20
2014,08,18,16,02,6.40
2014,08,18,16,03,5.30
2014,08,18,16,04,5.70
2014,08,18,16,05,3.80
2014,08,18,16,06,4.10
2014,08,18,16,07,5.20
2014,08,18,16,08,4.50
2014,08,18,16,09,5.50
2014,08,18,16,10,6.40
2014,08,18,16,11,5.80
2014,08,18,16,12,6.70
2014,08,18,16,13,2.90
2014,08,18,16,14,5.20
2014,08,18,16,15,7.80
2014,08,18,16,16,7.00
2014,08,18,16,17,7.90
2014,08,18,16,18,4.30
2014,08,18,16,19,4.30
2014,08,18,16,20,7.40
2014,08,18,16,21,4.60
2014,08,18,16,22,5.80
2014,08,18,16,23,6.60
2014,08,18,16,24,7.10
2014,08,18,16,25,6.40
2014,08,18,16,26,5.80
2014,08,18,16,27,2.90
2014,08,18,16,28,3.90
2014,08,18,16,29,4.70
2014,08,18,16,30,4.70
2014,08,18,16,31,4.70
2014,08,18,16,32,6.40
2014,08,18,16,33,4.70
2014,08,18,16,34,4.20
2014,08,18,16,35,3.80
2014,08,18,16,36,4.30
2014,08,18,16,37,4.20
2014,08,18,16,38,3.00
2014,08,18,16,39,2.20
2014,08,18,16,40,4.30
2014,08,18,16,41,4.90
2014,08,18,16,42,1.40
2014,08,18,16,43,2.20
2014,08,18,16,44,3.10
2014,08,18,16,45,3.50
2014,08,18,16,46,2.00
2014,08,18,16,47,1.60
2014,08,18,16,48,0.20
2014,08,18,16,49,1.10
2014,08,18,16,50,2.20
2014,08,18,16,51,3.30
2014,08,18,16,52,1.90
2014,08,18,16,53,3.90
2014,08,18,16,54,3.30
2014,08,18,16,55,4.20
2014,08,18,16,56,5.00
2014,08,18,16,57,3.00
2014,08,18,16,58,2.70
2014,08,18,16,59,3.00
2014,08,18,17,00,4.40
2014,08,18,17,01,4.30
2014,08,18,17,02,3.80
2014,08,18,17,03,4.20
2014,08,18,17,04,5.80
2014,08,18,17,05,6.20
2014,08,18,17,06,2.80
2014,08,18,17,07,4.00
2014,08,18,17,08,3.70
2014,08,18,17,09,5.10
2014,08,18,17,10,5.70
2014,08,18,17,11,8.00
2014,08,18,17,12,6.40
2014,08,18,17,13,6.30
2014,08,18,17,14,10.10
2014,08,18,17,15,7.70
2014,08,18,17,16,3.60
2014,08,18,17,17,5.90
2014,08,18,17,18,7.40
2014,08,18,17,19,12.50
2014,08,18,17,20,6.40
2014,08,18,17,21,5.60
2014,08,18,17,22,7.00
2014,08,18,17,23,6.70
2014,08,18,17,24,8.10
2014,08,18,17,25,8.70
2014,08,18,17,26,8.70
2014,08,18,17,27,10.90
2014,08,18,17,28,10.70
2014,08,18,17,29,13.10
2014,08,18,17,30,14.60
2014,08,18,17,31,13.40
2014,08,18,17,32,12.50
2014,08,18,17,33,14.70
2014,08,18,17,34,14.70
2014,08,18,17,35,14.40
2014,08,18,17,36,13.60
2014,08,18,17,37,11.70
2014,08,18,17,38,14.70
2014,08,18,17,39,13.50
2014,08,18,17,40,15.60
2014,08,18,17,41,15.00
2014,08,18,17,42,14.60
2014,08,18,17,43,12.50
2014,08,18,17,44,13.20
2014,08,18,17,45,12.10
2014,08,18,17,46,10.80
2014,08,18,17,47,9.70
2014,08,18,17,48,9.50
2014,08,18,17,49,10.40
2014,08,18,17,50,11.60
2014,08,18,17,51,8.90
2014,08,18,17,52,7.00
2014,08,18,17,53,6.80
2014,08,18,17,54,4.80
2014,08,18,17,55,4.60
2014,08,18,17,56,4.60
2014,08,18,17,57,6.10
2014,08,18,17,58,8.80
2014,08,18,17,59,9.40
2014,08,18,18,00,8.70
2014,08,18,18,01,8.20
2014,08,18,18,02,8.10
2014,08,18,18,03,5.00
2014,08,18,18,04,2.20
2014,08,18,18,05,2.70
2014,08,18,18,06,3.80
2014,08,18,18,07,3.60
2014,08,18,18,08,6.70
2014,08,18,18,09,4.20
2014,08,18,18,10,7.10
2014,08,18,18,11,5.30
2014,08,18,18,12,7.20
2014,08,18,18,13,4.80
2014,08,18,18,14,7.20
2014,08,18,18,15,7.90
2014,08,18,18,16,4.90
2014,08,18,18,17,5.00
2014,08,18,18,18,6.80
2014,08,18,18,19,6.90
2014,08,18,18,20,10.30
2014,08,18,18,21,9.40
2014,08,18,18,22,9.70
2014,08,18,18,23,8.40
2014,08,18,18,24,7.50
2014,08,18,18,25,7.10
2014,08,18,18,26,7.20
2014,08,18,18,27,6.30
2014,08,18,18,28,9.00
2014,08,18,18,29,13.00
2014,08,18,18,30,9.80
2014,08,18,18,31,9.10
2014,08,18,18,32,8.90
2014,08,18,18,33,5.40
2014,08,18,18,34,1.80
2014,08,18,18,35,3.40
2014,08,18,18,36,2.60
2014,08,18,18,37,6.10
2014,08,18,18,38,4.40
2014,08,18,18,39,6.20
2014,08,18,18,40,3.00
2014,08,18,18,41,2.20
2014,08,18,18,42,5.60
2014,08,18,18,43,5.30
2014,08,18,18,44,1.40
2014,08,18,18,45,1.90
2014,08,18,18,46,2.20
2014,08,18,18,47,2.30
2014,08,18,18,48,4.60
2014,08,18,18,49,3.60
2014,08,18,18,50,3.80
2014,08,18,18,51,3.00
2014,08,18,18,52,2.90
2014,08,18,18,53,3.30
2014,08,18,18,54,1.30
2014,08,18,18,55,1.90
2014,08,18,18,56,2.40
2014,08,18,18,57,1.80
2014,08,18,18,58,4.90
2014,08,18,18,59,3.30
2014,08,18,19,00,3.50
2014,08,18,19,01,4.50
2014,08,18,19,02,4.70
2014,08,18,19,03,2.10
2014,08,18,19,04,2.90
2014,08,18,19,05,3.50
2014,08,18,19,06,2.90
2014,08,18,19,07,1.30
2014,08,18,19,08,3.10
2014,08,18,19,09,8.60
2014,08,18,19,10,6.40
2014,08,18,19,11,4.00
2014,08,18,19,12,8.20
2014,08,18,19,13,6.50
2014,08,18,19,14,5.40
2014,08,18,19,15,6.50
2014,08,18,19,16,6.90
2014,08,18,19,17,10.00
2014,08,18,19,18,11.50
2014,08,18,19,23,8.70
2014,08,18,19,24,10.10
2014,08,18,19,25,9.30
2014,08,18,19,26,11.30
2014,08,18,19,27,5.80
2014,08,18,19,28,5.80
2014,08,18,19,29,12.60
2014,08,18,19,30,8.10
2014,08,18,19,31,10.50
2014,08,18,19,32,7.20
2014,08,18,19,33,3.90
2014,08,18,19,34,12.00
2014,08,18,19,35,8.70
2014,08,18,19,36,9.10
2014,08,18,19,37,9.90
2014,08,18,19,38,10.20
2014,08,18,19,39,8.10
2014,08,18,19,40,10.20
2014,08,18,19,41,12.70
2014,08,18,19,42,8.50
2014,08,18,19,43,10.70
2014,08,18,19,44,5.70
2014,08,18,19,45,7.60
2014,08,18,19,46,9.60
2014,08,18,19,47,5.40
2014,08,18,19,48,11.50
2014,08,18,19,49,11.70
2014,08,18,19,50,7.70
2014,08,18,19,51,11.40
2014,08,18,19,52,11.90
2014,08,18,19,53,9.40
2014,08,18,19,54,12.50
2014,08,18,19,55,11.50
2014,08,18,19,56,15.00
2014,08,18,19,57,12.20
2014,08,18,19,58,9.40
2014,08,18,19,59,12.50
2014,08,18,20,00,15.70
2014,08,18,20,01,12.80
2014,08,18,20,02,12.20
2014,08,18,20,03,11.30
2014,08,18,20,04,6.80
2014,08,18,20,05,10.90
2014,08,18,20,06,12.60
2014,08,18,20,07,13.60
2014,08,18,20,08,13.30
2014,08,18,20,09,14.50
2014,08,18,20,10,14.70
2014,08,18,20,11,14.40
2014,08,18,20,12,12.40
2014,08,18,20,13,13.90
2014,08,18,20,14,13.80
2014,08,18,20,15,11.60
2014,08,18,20,16,12.90
2014,08,18,20,17,12.60
2014,08,18,20,18,14.50
2014,08,18,20,19,13.20
2014,08,18,20,20,13.60
2014,08,18,20,21,10.80
2014,08,18,20,22,10.80
2014,08,18,20,23,11.70
2014,08,18,20,24,11.40
2014,08,18,20,25,13.50
2014,08,18,20,26,15.40
2014,08,18,20,27,15.20
2014,08,18,20,28,13.30
2014,08,18,20,29,12.50
2014,08,18,20,30,12.30
2014,08,18,20,31,11.60
2014,08,18,20,32,14.40
2014,08,18,20,33,15.90
2014,08,18,20,34,14.70
2014,08,18,20,35,12.60
2014,08,18,20,36,12.40
2014,08,18,20,37,11.40
2014,08,18,20,38,8.90
2014,08,18,20,39,7.70
2014,08,18,20,40,7.00
2014,08,18,20,41,8.00
2014,08,18,20,42,9.30
2014,08,18,20,43,13.10
2014,08,18,20,44,11.30
2014,08,18,20,45,9.40
2014,08,18,20,46,12.90
2014,08,18,20,47,11.70
2014,08,18,20,48,10.70
2014,08,18,20,49,10.20
2014,08,18,20,50,9.70
2014,08,18,20,51,9.40
2014,08,18,20,52,7.50
2014,08,18,20,53,8.90
2014,08,18,20,54,10.70